Time,TemperatureF,DewpointF,PressureIn,WindDirection,WindDirectionDegrees,WindSpeedMPH,WindSpeedGustMPH,Humidity,HourlyPrecipIn,Conditions,Clouds,dailyrainin,SoftwareType,DateUTC
2013-11-19 00:00:00,34.2,31.0,29.29,NNW,344,14.4,26.4,88,0.00,,,0.00,VWS V13.01,2013-11-19 05:00:00,
2013-11-19 00:02:00,34.3,31.2,29.29,NNE,19,13.1,26.4,88,0.00,,,0.00,VWS V13.01,2013-11-19 05:02:00,
2013-11-19 00:04:00,34.3,31.2,29.29,North,353,11.4,33.6,88,0.00,,,0.00,VWS V13.01,2013-11-19 05:04:00,
2013-11-19 00:06:00,34.3,31.2,29.29,NNE,17,11.4,20.1,88,0.00,,,0.00,VWS V13.01,2013-11-19 05:06:00,
2013-11-19 00:10:00,34.2,31.0,29.29,NNE,31,12.1,21.0,88,0.00,,,0.00,VWS V13.01,2013-11-19 05:10:00,
2013-11-19 00:16:00,34.0,30.8,29.29,NNW,336,12.1,19.2,88,0.00,,,0.00,VWS V13.01,2013-11-19 05:16:00,
2013-11-19 00:22:00,34.0,30.8,29.29,North,2,12.1,17.4,88,0.00,,,0.00,VWS V13.01,2013-11-19 05:22:00,
2013-11-19 00:24:00,34.0,30.8,29.29,North,353,8.1,27.3,88,0.00,,,0.00,VWS V13.01,2013-11-19 05:24:00,
2013-11-19 00:28:00,34.0,30.8,29.29,North,357,12.4,21.9,88,0.00,,,0.00,VWS V13.01,2013-11-19 05:28:00,
2013-11-19 00:34:00,34.2,31.0,29.29,North,353,15.8,26.4,88,0.00,,,0.00,VWS V13.01,2013-11-19 05:34:00,
2013-11-19 00:40:00,34.0,30.8,29.32,NNE,19,11.4,29.1,88,0.00,,,0.00,VWS V13.01,2013-11-19 05:40:00,
2013-11-19 00:46:00,34.0,30.8,29.32,ENE,63,13.1,40.3,88,0.00,,,0.00,VWS V13.01,2013-11-19 05:46:00,
2013-11-19 00:52:00,33.8,30.6,29.32,North,353,15.8,34.9,88,0.00,,,0.00,VWS V13.01,2013-11-19 05:52:00,
2013-11-19 00:58:00,33.6,31.5,29.32,NNW,333,8.1,26.4,92,0.00,,,0.00,VWS V13.01,2013-11-19 05:58:00,
2013-11-19 01:04:00,33.6,28.1,29.32,NNE,14,12.4,41.2,80,0.00,,,0.00,VWS V13.01,2013-11-19 06:04:00,
2013-11-19 01:10:00,33.3,27.8,29.32,North,350,15.8,21.0,80,0.00,,,0.00,VWS V13.01,2013-11-19 06:10:00,
2013-11-19 01:16:00,33.4,27.9,29.32,NNW,333,26.8,41.2,80,0.00,,,0.00,VWS V13.01,2013-11-19 06:16:00,
2013-11-19 01:22:00,33.3,27.8,29.35,NNE,30,19.1,34.9,80,0.00,,,0.00,VWS V13.01,2013-11-19 06:22:00,
2013-11-19 01:28:00,32.7,27.2,29.35,NW,321,9.4,30.9,80,0.00,,,0.00,VWS V13.01,2013-11-19 06:28:00,
2013-11-19 01:34:00,32.7,30.7,29.35,NNW,330,15.1,27.3,92,0.00,,,0.00,VWS V13.01,2013-11-19 06:34:00,
2013-11-19 01:40:00,32.5,30.5,29.35,North,2,11.4,39.4,92,0.00,,,0.00,VWS V13.01,2013-11-19 06:40:00,
2013-11-19 01:46:00,32.7,27.2,29.35,NNW,344,12.1,26.4,80,0.00,,,0.00,VWS V13.01,2013-11-19 06:46:00,
2013-11-19 01:52:00,32.5,30.5,29.35,NNW,339,19.1,30.9,92,0.00,,,0.00,VWS V13.01,2013-11-19 06:52:00,
2013-11-19 01:58:00,32.5,30.5,29.35,NNW,329,11.4,34.9,92,0.00,,,0.00,VWS V13.01,2013-11-19 06:58:00,
2013-11-19 02:04:00,32.5,27.1,29.35,NNE,33,21.8,30.0,80,0.00,,,0.00,VWS V13.01,2013-11-19 07:04:00,
2013-11-19 02:10:00,32.2,30.1,29.38,NNE,24,8.1,24.6,92,0.00,,,0.00,VWS V13.01,2013-11-19 07:10:00,
2013-11-19 02:16:00,32.2,30.1,29.38,NNE,22,12.4,38.5,92,0.00,,,0.00,VWS V13.01,2013-11-19 07:16:00,
2013-11-19 02:22:00,32.0,29.9,29.38,North,0,13.1,25.5,92,0.00,,,0.00,VWS V13.01,2013-11-19 07:22:00,
2013-11-19 02:28:00,31.6,29.6,29.38,NW,311,21.8,33.6,92,0.00,,,0.00,VWS V13.01,2013-11-19 07:28:00,
2013-11-19 02:34:00,31.3,29.2,29.38,North,7,8.7,30.9,92,0.00,,,0.00,VWS V13.01,2013-11-19 07:34:00,
2013-11-19 02:40:00,31.5,29.4,29.41,North,5,8.7,21.9,92,0.00,,,0.00,VWS V13.01,2013-11-19 07:40:00,
2013-11-19 02:46:00,31.5,29.4,29.41,NNE,22,8.1,23.7,92,0.00,,,0.00,VWS V13.01,2013-11-19 07:46:00,
2013-11-19 02:52:00,31.6,29.6,29.41,NNW,346,6.0,35.8,92,0.00,,,0.00,VWS V13.01,2013-11-19 07:52:00,
2013-11-19 02:58:00,31.1,29.0,29.41,NNE,12,12.1,17.4,92,0.00,,,0.00,VWS V13.01,2013-11-19 07:58:00,
2013-11-19 03:04:00,31.8,29.8,29.41,NNW,345,19.8,26.4,92,0.00,,,0.00,VWS V13.01,2013-11-19 08:04:00,
2013-11-19 03:10:00,32.2,26.7,29.41,NNE,13,12.1,35.8,80,0.00,,,0.00,VWS V13.01,2013-11-19 08:10:00,
2013-11-19 03:16:00,32.2,26.7,29.41,North,4,15.1,30.0,80,0.00,,,0.00,VWS V13.01,2013-11-19 08:16:00,
2013-11-19 03:22:00,32.0,26.5,29.44,North,357,11.4,26.4,80,0.00,,,0.00,VWS V13.01,2013-11-19 08:22:00,
2013-11-19 03:28:00,31.8,26.4,29.44,NNE,19,12.1,34.0,80,0.00,,,0.00,VWS V13.01,2013-11-19 08:28:00,
2013-11-19 03:34:00,32.0,26.5,29.44,NNW,331,15.8,32.7,80,0.00,,,0.00,VWS V13.01,2013-11-19 08:34:00,
2013-11-19 03:39:00,32.0,26.5,29.44,NNE,16,15.8,24.6,80,0.00,,,0.00,VWS V13.01,2013-11-19 08:39:00,
2013-11-19 03:46:00,32.2,26.7,29.44,North,349,16.4,25.5,80,0.00,,,0.00,VWS V13.01,2013-11-19 08:46:00,
2013-11-19 03:52:00,32.2,26.7,29.44,NNW,334,18.5,30.9,80,0.00,,,0.00,VWS V13.01,2013-11-19 08:52:00,
2013-11-19 03:57:00,32.0,26.5,29.44,North,357,15.8,21.9,80,0.00,,,0.00,VWS V13.01,2013-11-19 08:57:00,
2013-11-19 04:04:00,31.6,26.2,29.44,NNW,340,6.0,16.6,80,0.00,,,0.00,VWS V13.01,2013-11-19 09:04:00,
2013-11-19 04:10:00,31.5,29.4,29.47,WNW,303,9.4,16.1,92,0.00,,,0.00,VWS V13.01,2013-11-19 09:10:00,
2013-11-19 04:16:00,31.6,29.6,29.47,WNW,299,12.1,30.9,92,0.00,,,0.00,VWS V13.01,2013-11-19 09:16:00,
2013-11-19 04:21:00,31.6,29.6,29.47,NW,311,12.1,28.2,92,0.00,,,0.00,VWS V13.01,2013-11-19 09:21:00,
2013-11-19 04:28:00,31.5,29.4,29.47,NNW,342,16.4,21.9,92,0.00,,,0.00,VWS V13.01,2013-11-19 09:28:00,
2013-11-19 04:34:00,31.6,29.6,29.47,North,6,5.4,16.6,92,0.00,,,0.00,VWS V13.01,2013-11-19 09:34:00,
2013-11-19 04:40:00,31.8,29.8,29.47,North,357,4.0,17.4,92,0.00,,,0.00,VWS V13.01,2013-11-19 09:40:00,
2013-11-19 04:45:00,32.0,26.5,29.47,North,0,19.1,25.5,80,0.00,,,0.00,VWS V13.01,2013-11-19 09:45:00,
2013-11-19 04:51:00,32.0,26.5,29.50,NNE,15,25.5,34.0,80,0.00,,,0.00,VWS V13.01,2013-11-19 09:51:00,
2013-11-19 04:58:00,32.2,26.7,29.50,North,1,15.1,34.9,80,0.00,,,0.00,VWS V13.01,2013-11-19 09:58:00,
2013-11-19 05:03:00,32.0,26.5,29.50,NNW,338,9.4,21.9,80,0.00,,,0.00,VWS V13.01,2013-11-19 10:03:00,
2013-11-19 05:10:00,32.0,26.5,29.50,NNE,19,8.1,17.4,80,0.00,,,0.00,VWS V13.01,2013-11-19 10:10:00,
2013-11-19 05:16:00,31.8,26.4,29.50,NNE,27,8.1,23.7,80,0.00,,,0.00,VWS V13.01,2013-11-19 10:16:00,
2013-11-19 05:22:00,32.0,26.5,29.50,NNE,28,23.2,30.9,80,0.00,,,0.00,VWS V13.01,2013-11-19 10:22:00,
2013-11-19 05:28:00,31.3,25.8,29.50,North,353,8.7,12.5,80,0.00,,,0.00,VWS V13.01,2013-11-19 10:28:00,
2013-11-19 05:34:00,31.5,26.0,29.50,NNW,331,12.1,20.1,80,0.00,,,0.00,VWS V13.01,2013-11-19 10:34:00,
2013-11-19 05:40:00,31.6,26.2,29.53,NNW,329,16.4,28.2,80,0.00,,,0.00,VWS V13.01,2013-11-19 10:40:00,
2013-11-19 05:45:00,31.6,26.2,29.53,NNE,12,17.8,28.2,80,0.00,,,0.00,VWS V13.01,2013-11-19 10:45:00,
2013-11-19 05:51:00,31.5,26.0,29.53,NE,37,11.4,17.4,80,0.00,,,0.00,VWS V13.01,2013-11-19 10:51:00,
2013-11-19 05:58:00,31.5,26.0,29.53,North,357,15.1,34.9,80,0.00,,,0.00,VWS V13.01,2013-11-19 10:58:00,
2013-11-19 06:04:00,31.3,25.8,29.53,NE,41,12.4,25.5,80,0.00,,,0.00,VWS V13.01,2013-11-19 11:04:00,
2013-11-19 06:09:00,31.3,25.8,29.56,North,8,19.1,25.5,80,0.00,,,0.00,VWS V13.01,2013-11-19 11:09:00,
2013-11-19 06:16:00,30.9,25.5,29.56,North,11,8.1,10.7,80,0.00,,,0.00,VWS V13.01,2013-11-19 11:16:00,
2013-11-19 06:22:00,31.3,25.8,29.56,North,11,12.1,21.9,80,0.00,,,0.00,VWS V13.01,2013-11-19 11:22:00,
2013-11-19 06:27:00,31.3,25.8,29.56,NE,42,5.4,16.6,80,0.00,,,0.00,VWS V13.01,2013-11-19 11:27:00,
2013-11-19 06:33:00,31.3,25.8,29.56,North,11,11.4,16.6,80,0.00,,,0.00,VWS V13.01,2013-11-19 11:33:00,
2013-11-19 06:40:00,31.5,26.0,29.56,NNE,17,11.4,30.0,80,0.00,,,0.00,VWS V13.01,2013-11-19 11:40:00,
2013-11-19 06:45:00,31.5,26.0,29.56,NNW,330,12.4,25.5,80,0.00,,,0.00,VWS V13.01,2013-11-19 11:45:00,
2013-11-19 06:52:00,31.3,25.8,29.59,NNE,16,9.4,18.3,80,0.00,,,0.00,VWS V13.01,2013-11-19 11:52:00,
2013-11-19 06:57:00,31.5,26.0,29.59,NNE,15,17.1,30.0,80,0.00,,,0.00,VWS V13.01,2013-11-19 11:57:00,
2013-11-19 07:04:00,31.3,25.8,29.59,NE,34,12.1,24.6,80,0.00,,,0.00,VWS V13.01,2013-11-19 12:04:00,
2013-11-19 07:09:00,31.3,25.8,29.59,NE,39,11.4,20.1,80,0.00,,,0.00,VWS V13.01,2013-11-19 12:09:00,
2013-11-19 07:16:00,31.3,25.8,29.59,North,353,11.4,25.5,80,0.00,,,0.00,VWS V13.01,2013-11-19 12:16:00,
2013-11-19 07:22:00,31.3,25.8,29.59,NNW,332,5.4,22.8,80,0.00,,,0.00,VWS V13.01,2013-11-19 12:22:00,
2013-11-19 07:28:00,31.3,25.8,29.59,North,357,8.7,24.6,80,0.00,,,0.00,VWS V13.01,2013-11-19 12:28:00,
2013-11-19 07:33:00,31.3,25.8,29.59,NE,47,15.1,30.0,80,0.00,,,0.00,VWS V13.01,2013-11-19 12:33:00,
2013-11-19 07:40:00,31.1,25.7,29.62,North,357,13.1,25.5,80,0.00,,,0.00,VWS V13.01,2013-11-19 12:40:00,
2013-11-19 07:46:00,31.1,25.7,29.62,NNE,22,19.1,25.5,80,0.00,,,0.00,VWS V13.01,2013-11-19 12:46:00,
2013-11-19 07:51:00,31.1,25.7,29.62,North,353,6.0,15.2,80,0.00,,,0.00,VWS V13.01,2013-11-19 12:51:00,
2013-11-19 07:58:00,31.1,25.7,29.62,NNW,343,15.1,21.9,80,0.00,,,0.00,VWS V13.01,2013-11-19 12:58:00,
2013-11-19 08:04:00,31.5,26.0,29.62,NNE,22,13.1,24.6,80,0.00,,,0.00,VWS V13.01,2013-11-19 13:04:00,
2013-11-19 08:10:00,31.8,26.4,29.62,NNE,30,20.5,28.2,80,0.00,,,0.00,VWS V13.01,2013-11-19 13:10:00,
2013-11-19 08:16:00,32.2,26.7,29.62,NNE,28,12.4,24.6,80,0.00,,,0.00,VWS V13.01,2013-11-19 13:16:00,
2013-11-19 08:22:00,32.0,26.5,29.65,North,353,15.8,21.0,80,0.00,,,0.00,VWS V13.01,2013-11-19 13:22:00,
2013-11-19 08:27:00,32.4,26.9,29.65,NNW,343,19.8,26.4,80,0.00,,,0.00,VWS V13.01,2013-11-19 13:27:00,
2013-11-19 08:33:00,32.5,27.1,29.65,North,353,20.5,27.3,80,0.00,,,0.00,VWS V13.01,2013-11-19 13:33:00,
2013-11-19 08:39:00,32.5,27.1,29.65,North,0,19.8,26.4,80,0.00,,,0.00,VWS V13.01,2013-11-19 13:39:00,
2013-11-19 08:46:00,32.5,27.1,29.65,North,1,16.4,40.3,80,0.00,,,0.00,VWS V13.01,2013-11-19 13:46:00,
2013-11-19 08:51:00,32.5,27.1,29.65,North,3,8.7,30.0,80,0.00,,,0.00,VWS V13.01,2013-11-19 13:51:00,
2013-11-19 08:57:00,32.2,26.7,29.65,NNE,28,27.5,36.7,80,0.00,,,0.00,VWS V13.01,2013-11-19 13:57:00,
2013-11-19 09:04:00,32.0,26.5,29.65,North,8,18.5,24.6,80,0.00,,,0.00,VWS V13.01,2013-11-19 14:04:00,
2013-11-19 09:10:00,32.5,27.1,29.68,NNE,14,16.4,24.6,80,0.00,,,0.00,VWS V13.01,2013-11-19 14:10:00,
2013-11-19 09:16:00,32.4,26.9,29.68,NE,40,13.1,34.0,80,0.00,,,0.00,VWS V13.01,2013-11-19 14:16:00,
2013-11-19 09:22:00,32.7,27.2,29.68,North,10,4.7,23.7,80,0.00,,,0.00,VWS V13.01,2013-11-19 14:22:00,
2013-11-19 09:28:00,33.1,27.6,29.68,NNE,25,17.1,29.1,80,0.00,,,0.00,VWS V13.01,2013-11-19 14:28:00,
2013-11-19 09:34:00,32.9,27.4,29.68,North,353,19.1,26.4,80,0.00,,,0.00,VWS V13.01,2013-11-19 14:34:00,
2013-11-19 09:38:00,32.7,27.2,29.68,North,353,13.1,34.0,80,0.00,,,0.00,VWS V13.01,2013-11-19 14:38:00,
2013-11-19 09:44:00,32.9,27.4,29.68,NNW,342,9.4,21.0,80,0.00,,,0.00,VWS V13.01,2013-11-19 14:44:00,
2013-11-19 09:49:00,32.7,27.2,29.68,North,357,16.4,27.3,80,0.00,,,0.00,VWS V13.01,2013-11-19 14:49:00,
2013-11-19 09:56:00,33.4,27.9,29.68,North,3,24.5,32.7,80,0.00,,,0.00,VWS V13.01,2013-11-19 14:56:00,
2013-11-19 10:02:00,33.6,28.1,29.68,NNE,33,19.1,30.9,80,0.00,,,0.00,VWS V13.01,2013-11-19 15:02:00,
2013-11-19 10:08:00,34.3,28.8,29.71,North,2,12.4,34.9,80,0.00,,,0.00,VWS V13.01,2013-11-19 15:08:00,
2013-11-19 10:14:00,35.1,29.5,29.71,North,353,8.7,24.6,80,0.00,,,0.00,VWS V13.01,2013-11-19 15:14:00,
2013-11-19 10:20:00,33.8,28.3,29.71,NW,308,15.8,30.0,80,0.00,,,0.00,VWS V13.01,2013-11-19 15:20:00,
2013-11-19 10:26:00,33.1,27.6,29.71,NNE,25,16.4,31.8,80,0.00,,,0.00,VWS V13.01,2013-11-19 15:26:00,
2013-11-19 10:32:00,33.1,27.6,29.71,North,349,9.4,27.3,80,0.00,,,0.00,VWS V13.01,2013-11-19 15:32:00,
2013-11-19 10:38:00,32.9,27.4,29.71,ENE,58,16.4,30.0,80,0.00,,,0.00,VWS V13.01,2013-11-19 15:38:00,
2013-11-19 10:43:00,33.3,27.8,29.71,North,10,27.5,36.7,80,0.00,,,0.00,VWS V13.01,2013-11-19 15:43:00,
2013-11-19 10:50:00,33.3,27.8,29.71,North,2,12.4,24.6,80,0.00,,,0.00,VWS V13.01,2013-11-19 15:50:00,
2013-11-19 10:56:00,33.6,28.1,29.71,North,357,8.7,30.9,80,0.00,,,0.00,VWS V13.01,2013-11-19 15:56:00,
2013-11-19 11:02:00,33.1,27.6,29.71,North,3,17.1,30.9,80,0.00,,,0.00,VWS V13.01,2013-11-19 16:02:00,
2013-11-19 11:08:00,33.8,28.3,29.71,NNE,14,5.4,24.6,80,0.00,,,0.00,VWS V13.01,2013-11-19 16:08:00,
2013-11-19 11:14:00,33.4,27.9,29.71,NNE,18,13.8,29.1,80,0.00,,,0.00,VWS V13.01,2013-11-19 16:14:00,
2013-11-19 11:20:00,34.0,28.5,29.71,NNE,14,15.1,37.6,80,0.00,,,0.00,VWS V13.01,2013-11-19 16:20:00,
2013-11-19 11:25:00,33.3,27.8,29.74,North,353,15.1,34.9,80,0.00,,,0.00,VWS V13.01,2013-11-19 16:25:00,
2013-11-19 11:32:00,33.1,27.6,29.74,NE,43,19.8,40.3,80,0.00,,,0.00,VWS V13.01,2013-11-19 16:32:00,
2013-11-19 11:37:00,34.5,29.0,29.74,NE,40,17.1,22.8,80,0.00,,,0.00,VWS V13.01,2013-11-19 16:37:00,
2013-11-19 11:44:00,34.5,29.0,29.74,North,9,19.8,26.4,80,0.00,,,0.00,VWS V13.01,2013-11-19 16:44:00,
2013-11-19 11:50:00,33.8,28.3,29.74,NE,54,20.5,34.9,80,0.00,,,0.00,VWS V13.01,2013-11-19 16:50:00,
2013-11-19 11:56:00,35.6,28.8,29.74,NE,54,8.7,20.1,76,0.00,,,0.00,VWS V13.01,2013-11-19 16:56:00,
2013-11-19 12:02:00,35.1,29.5,29.74,NNE,24,23.2,34.0,80,0.00,,,0.00,VWS V13.01,2013-11-19 17:02:00,
2013-11-19 12:07:00,33.6,28.1,29.74,NNE,24,15.8,44.7,80,0.00,,,0.00,VWS V13.01,2013-11-19 17:07:00,
2013-11-19 12:14:00,34.3,28.8,29.74,NNE,32,15.8,30.9,80,0.00,,,0.00,VWS V13.01,2013-11-19 17:14:00,
2013-11-19 12:20:00,34.9,29.4,29.74,North,0,4.7,25.5,80,0.00,,,0.00,VWS V13.01,2013-11-19 17:20:00,
2013-11-19 12:26:00,36.3,29.5,29.74,North,5,19.1,25.5,76,0.00,,,0.00,VWS V13.01,2013-11-19 17:26:00,
2013-11-19 12:31:00,35.4,29.9,29.74,West,281,13.8,39.4,80,0.00,,,0.00,VWS V13.01,2013-11-19 17:31:00,
2013-11-19 12:38:00,35.1,29.5,29.74,NNE,33,13.1,34.9,80,0.00,,,0.00,VWS V13.01,2013-11-19 17:38:00,
2013-11-19 12:40:00,34.5,29.0,29.74,North,1,8.1,21.9,80,0.00,,,0.00,VWS V13.01,2013-11-19 17:40:00,
2013-11-19 12:45:00,34.5,29.0,29.74,North,357,9.4,21.9,80,0.00,,,0.00,VWS V13.01,2013-11-19 17:45:00,
2013-11-19 12:52:00,34.5,29.0,29.77,NNE,32,17.1,36.7,80,0.00,,,0.00,VWS V13.01,2013-11-19 17:52:00,
2013-11-19 12:58:00,34.2,28.6,29.77,NNW,343,12.1,39.4,80,0.00,,,0.00,VWS V13.01,2013-11-19 17:58:00,
2013-11-19 13:03:00,33.8,28.3,29.77,NNE,20,12.4,25.5,80,0.00,,,0.00,VWS V13.01,2013-11-19 18:03:00,
2013-11-19 13:10:00,33.6,28.1,29.77,NE,42,8.7,21.9,80,0.00,,,0.00,VWS V13.01,2013-11-19 18:10:00,
2013-11-19 13:15:00,33.3,27.8,29.77,NNE,20,11.4,33.6,80,0.00,,,0.00,VWS V13.01,2013-11-19 18:15:00,
2013-11-19 13:22:00,33.6,28.1,29.77,NE,49,8.7,33.6,80,0.00,,,0.00,VWS V13.01,2013-11-19 18:22:00,
2013-11-19 13:27:00,34.3,28.8,29.77,NE,44,17.1,22.8,80,0.00,,,0.00,VWS V13.01,2013-11-19 18:27:00,
2013-11-19 13:34:00,35.4,29.9,29.77,NE,49,5.4,23.7,80,0.00,,,0.00,VWS V13.01,2013-11-19 18:34:00,
2013-11-19 13:40:00,34.3,28.8,29.77,NNE,13,11.4,33.6,80,0.00,,,0.00,VWS V13.01,2013-11-19 18:40:00,
2013-11-19 13:45:00,33.8,28.3,29.77,NNW,328,21.1,30.0,80,0.00,,,0.00,VWS V13.01,2013-11-19 18:45:00,
2013-11-19 13:52:00,33.1,27.6,29.80,North,4,23.2,32.7,80,0.00,,,0.00,VWS V13.01,2013-11-19 18:52:00,
2013-11-19 13:58:00,33.3,27.8,29.80,West,281,19.1,25.5,80,0.00,,,0.00,VWS V13.01,2013-11-19 18:58:00,
2013-11-19 14:04:00,33.4,27.9,29.80,NE,40,12.1,23.7,80,0.00,,,0.00,VWS V13.01,2013-11-19 19:04:00,
2013-11-19 14:09:00,33.3,27.8,29.80,NNE,26,16.4,29.1,80,0.00,,,0.00,VWS V13.01,2013-11-19 19:09:00,
2013-11-19 14:16:00,33.3,27.8,29.80,NNE,12,9.4,21.9,80,0.00,,,0.00,VWS V13.01,2013-11-19 19:16:00,
2013-11-19 14:18:00,33.3,27.8,29.80,NE,39,9.4,20.1,80,0.00,,,0.00,VWS V13.01,2013-11-19 19:18:00,
2013-11-19 14:23:00,33.6,28.1,29.80,NE,51,13.1,17.4,80,0.00,,,0.00,VWS V13.01,2013-11-19 19:23:00,
2013-11-19 14:29:00,33.1,27.6,29.80,NE,48,9.4,21.0,80,0.00,,,0.00,VWS V13.01,2013-11-19 19:29:00,
2013-11-19 14:36:00,32.7,27.2,29.80,NNE,32,12.1,32.7,80,0.00,,,0.00,VWS V13.01,2013-11-19 19:36:00,
2013-11-19 14:41:00,32.7,27.2,29.80,NNE,26,18.5,24.6,80,0.00,,,0.00,VWS V13.01,2013-11-19 19:41:00,
2013-11-19 14:47:00,32.7,27.2,29.80,North,353,15.8,25.5,80,0.00,,,0.00,VWS V13.01,2013-11-19 19:47:00,
2013-11-19 14:54:00,32.5,27.1,29.83,NE,46,15.1,34.0,80,0.00,,,0.00,VWS V13.01,2013-11-19 19:54:00,
2013-11-19 14:59:00,32.5,27.1,29.83,NE,45,15.1,22.8,80,0.00,,,0.00,VWS V13.01,2013-11-19 19:59:00,
2013-11-19 15:05:00,32.5,27.1,29.83,NE,39,13.1,21.9,80,0.00,,,0.00,VWS V13.01,2013-11-19 20:05:00,
2013-11-19 15:12:00,32.4,26.9,29.83,NNE,33,6.0,17.4,80,0.00,,,0.00,VWS V13.01,2013-11-19 20:12:00,
2013-11-19 15:18:00,32.4,26.9,29.83,ENE,77,4.0,26.4,80,0.00,,,0.00,VWS V13.01,2013-11-19 20:18:00,
2013-11-19 15:23:00,32.4,26.9,29.83,NNW,330,4.7,16.6,80,0.00,,,0.00,VWS V13.01,2013-11-19 20:23:00,
2013-11-19 15:30:00,32.2,26.7,29.83,NNE,33,5.4,17.4,80,0.00,,,0.00,VWS V13.01,2013-11-19 20:30:00,
2013-11-19 15:35:00,32.2,26.7,29.85,NNE,20,17.8,30.0,80,0.00,,,0.00,VWS V13.01,2013-11-19 20:35:00,
2013-11-19 15:42:00,32.2,26.7,29.85,NNE,16,8.1,27.3,80,0.00,,,0.00,VWS V13.01,2013-11-19 20:42:00,
2013-11-19 15:47:00,32.2,26.7,29.85,NNW,343,15.8,27.3,80,0.00,,,0.00,VWS V13.01,2013-11-19 20:47:00,
2013-11-19 15:54:00,32.2,26.7,29.85,NE,43,11.4,22.8,80,0.00,,,0.00,VWS V13.01,2013-11-19 20:54:00,
2013-11-19 16:00:00,32.0,26.5,29.85,NNE,15,6.0,16.6,80,0.00,,,0.00,VWS V13.01,2013-11-19 21:00:00,
2013-11-19 16:05:00,32.0,26.5,29.85,North,353,13.1,25.5,80,0.00,,,0.00,VWS V13.01,2013-11-19 21:05:00,
2013-11-19 16:12:00,32.0,26.5,29.85,NE,38,12.4,29.1,80,0.00,,,0.00,VWS V13.01,2013-11-19 21:12:00,
2013-11-19 16:18:00,32.0,26.5,29.85,North,9,9.4,20.1,80,0.00,,,0.00,VWS V13.01,2013-11-19 21:18:00,
2013-11-19 16:24:00,31.8,26.4,29.88,NNE,26,13.1,17.4,80,0.00,,,0.00,VWS V13.01,2013-11-19 21:24:00,
2013-11-19 16:29:00,31.8,26.4,29.88,North,7,8.1,21.0,80,0.00,,,0.00,VWS V13.01,2013-11-19 21:29:00,
2013-11-19 16:36:00,31.8,26.4,29.88,NE,35,4.7,21.0,80,0.00,,,0.00,VWS V13.01,2013-11-19 21:36:00,
2013-11-19 16:41:00,31.8,26.4,29.88,NNE,32,6.0,21.9,80,0.00,,,0.00,VWS V13.01,2013-11-19 21:41:00,
2013-11-19 16:47:00,32.0,26.5,29.88,NE,34,8.1,20.1,80,0.00,,,0.00,VWS V13.01,2013-11-19 21:47:00,
2013-11-19 16:54:00,31.8,26.4,29.88,NE,55,7.4,20.1,80,0.00,,,0.00,VWS V13.01,2013-11-19 21:54:00,
2013-11-19 17:00:00,32.0,26.5,29.88,East,100,9.4,21.0,80,0.00,,,0.00,VWS V13.01,2013-11-19 22:00:00,
2013-11-19 17:06:00,31.6,26.2,29.91,ENE,61,8.7,16.1,80,0.00,,,0.00,VWS V13.01,2013-11-19 22:06:00,
2013-11-19 17:11:00,31.6,26.2,29.91,NNE,15,6.0,15.2,80,0.00,,,0.00,VWS V13.01,2013-11-19 22:11:00,
2013-11-19 17:18:00,31.8,26.4,29.91,East,80,9.4,16.1,80,0.00,,,0.00,VWS V13.01,2013-11-19 22:18:00,
2013-11-19 17:24:00,31.6,26.2,29.91,NNE,20,8.1,10.7,80,0.00,,,0.00,VWS V13.01,2013-11-19 22:24:00,
2013-11-19 17:29:00,31.8,26.4,29.91,ENE,67,7.4,21.9,80,0.00,,,0.00,VWS V13.01,2013-11-19 22:29:00,
2013-11-19 17:36:00,31.6,26.2,29.91,North,9,11.4,15.2,80,0.00,,,0.00,VWS V13.01,2013-11-19 22:36:00,
2013-11-19 17:42:00,31.8,26.4,29.91,NNE,30,8.1,20.1,80,0.00,,,0.00,VWS V13.01,2013-11-19 22:42:00,
2013-11-19 17:48:00,31.8,26.4,29.91,North,0,9.4,24.6,80,0.00,,,0.00,VWS V13.01,2013-11-19 22:48:00,
2013-11-19 17:53:00,31.6,26.2,29.94,ENE,63,6.0,16.1,80,0.00,,,0.00,VWS V13.01,2013-11-19 22:53:00,
2013-11-19 18:00:00,31.5,26.0,29.94,ENE,71,7.4,17.4,80,0.00,,,0.00,VWS V13.01,2013-11-19 23:00:00,
2013-11-19 18:06:00,31.5,26.0,29.94,ENE,64,4.7,16.1,80,0.00,,,0.00,VWS V13.01,2013-11-19 23:06:00,
2013-11-19 18:11:00,31.5,26.0,29.94,NNE,33,7.4,12.5,80,0.00,,,0.00,VWS V13.01,2013-11-19 23:11:00,
2013-11-19 18:18:00,31.5,26.0,29.94,NE,50,4.0,16.1,80,0.00,,,0.00,VWS V13.01,2013-11-19 23:18:00,
2013-11-19 18:24:00,31.1,25.7,29.94,North,5,9.4,12.5,80,0.00,,,0.00,VWS V13.01,2013-11-19 23:24:00,
2013-11-19 18:30:00,31.3,25.8,29.94,NE,49,4.7,21.0,80,0.00,,,0.00,VWS V13.01,2013-11-19 23:30:00,
2013-11-19 18:35:00,31.3,25.8,29.97,NE,51,5.4,16.1,80,0.00,,,0.00,VWS V13.01,2013-11-19 23:35:00,
2013-11-19 18:42:00,31.3,25.8,29.97,NE,51,8.7,12.5,80,0.00,,,0.00,VWS V13.01,2013-11-19 23:42:00,
2013-11-19 18:48:00,31.1,25.7,29.97,NE,42,8.1,10.7,80,0.00,,,0.00,VWS V13.01,2013-11-19 23:48:00,
2013-11-19 18:53:00,31.1,25.7,29.97,NE,48,6.0,16.6,80,0.00,,,0.00,VWS V13.01,2013-11-19 23:53:00,
2013-11-19 19:00:00,31.1,25.7,29.97,ENE,71,9.4,16.1,80,0.00,,,0.00,VWS V13.01,2013-11-20 00:00:00,
2013-11-19 19:06:00,30.7,25.3,29.97,ENE,58,6.0,15.2,80,0.00,,,0.00,VWS V13.01,2013-11-20 00:06:00,
2013-11-19 19:12:00,30.7,25.3,29.97,NNE,24,10.1,13.4,80,0.00,,,0.00,VWS V13.01,2013-11-20 00:12:00,
2013-11-19 19:17:00,30.6,25.1,29.97,NE,43,4.7,15.2,80,0.00,,,0.00,VWS V13.01,2013-11-20 00:17:00,
2013-11-19 19:24:00,30.7,25.3,29.97,NE,46,6.0,20.1,80,0.00,,,0.00,VWS V13.01,2013-11-20 00:24:00,
2013-11-19 19:29:00,30.7,25.3,29.97,North,9,6.0,15.2,80,0.00,,,0.00,VWS V13.01,2013-11-20 00:29:00,
2013-11-19 19:35:00,30.7,25.3,30.00,ENE,67,9.4,18.3,80,0.00,,,0.00,VWS V13.01,2013-11-20 00:35:00,
2013-11-19 19:42:00,30.6,25.1,30.00,NE,41,25.5,34.0,80,0.00,,,0.00,VWS V13.01,2013-11-20 00:42:00,
2013-11-19 19:47:00,30.2,24.8,30.00,NE,43,4.0,8.1,80,0.00,,,0.00,VWS V13.01,2013-11-20 00:47:00,
2013-11-19 19:54:00,30.4,25.0,30.00,NNE,33,4.7,19.2,80,0.00,,,0.00,VWS V13.01,2013-11-20 00:54:00,
2013-11-19 19:59:00,30.4,25.0,30.00,ENE,67,5.4,10.7,80,0.00,,,0.00,VWS V13.01,2013-11-20 00:59:00,
2013-11-19 20:06:00,30.2,24.8,30.00,NNE,30,12.4,23.7,80,0.00,,,0.00,VWS V13.01,2013-11-20 01:06:00,
2013-11-19 20:12:00,30.4,25.0,30.00,NE,41,4.7,10.7,80,0.00,,,0.00,VWS V13.01,2013-11-20 01:12:00,
2013-11-19 20:17:00,30.2,24.8,30.00,NE,41,6.0,10.7,80,0.00,,,0.00,VWS V13.01,2013-11-20 01:17:00,
2013-11-19 20:24:00,30.2,24.8,30.03,ENE,63,5.4,8.1,80,0.00,,,0.00,VWS V13.01,2013-11-20 01:24:00,
2013-11-19 20:29:00,30.0,24.6,30.03,NE,46,0.0,6.3,80,0.00,,,0.00,VWS V13.01,2013-11-20 01:29:00,
2013-11-19 20:36:00,30.2,24.8,30.03,NE,48,4.0,8.1,80,0.00,,,0.00,VWS V13.01,2013-11-20 01:36:00,
2013-11-19 20:41:00,30.0,24.6,30.03,NE,56,5.4,9.8,80,0.00,,,0.00,VWS V13.01,2013-11-20 01:41:00,
2013-11-19 20:48:00,29.8,24.4,30.03,NE,39,0.0,8.9,80,0.00,,,0.00,VWS V13.01,2013-11-20 01:48:00,
2013-11-19 20:54:00,30.0,24.6,30.03,NE,42,6.0,8.1,80,0.00,,,0.00,VWS V13.01,2013-11-20 01:54:00,
2013-11-19 20:59:00,29.5,24.1,30.03,NE,37,4.0,7.2,80,0.00,,,0.00,VWS V13.01,2013-11-20 01:59:00,
2013-11-19 21:06:00,29.7,24.3,30.03,NE,50,6.0,10.7,80,0.00,,,0.00,VWS V13.01,2013-11-20 02:06:00,
2013-11-19 21:12:00,29.5,24.1,30.03,NNE,25,8.1,12.5,80,0.00,,,0.00,VWS V13.01,2013-11-20 02:12:00,
2013-11-19 21:18:00,29.1,23.7,30.03,NNE,24,8.1,16.1,80,0.00,,,0.00,VWS V13.01,2013-11-20 02:18:00,
2013-11-19 21:23:00,28.9,23.6,30.03,NNE,33,4.0,21.9,80,0.00,,,0.00,VWS V13.01,2013-11-20 02:23:00,
2013-11-19 21:30:00,28.6,23.2,30.03,NNE,29,8.1,15.2,80,0.00,,,0.00,VWS V13.01,2013-11-20 02:30:00,
2013-11-19 21:36:00,28.6,23.2,30.06,NE,52,3.4,16.6,80,0.00,,,0.00,VWS V13.01,2013-11-20 02:36:00,
2013-11-19 21:41:00,28.9,23.6,30.06,North,9,0.0,12.5,80,0.00,,,0.00,VWS V13.01,2013-11-20 02:41:00,
2013-11-19 21:48:00,29.5,24.1,30.06,NW,315,8.1,16.1,80,0.00,,,0.00,VWS V13.01,2013-11-20 02:48:00,
2013-11-19 21:53:00,29.3,23.9,30.06,North,5,4.7,8.1,80,0.00,,,0.00,VWS V13.01,2013-11-20 02:53:00,
2013-11-19 22:00:00,28.9,23.6,30.06,NNE,33,15.8,21.0,80,0.00,,,0.00,VWS V13.01,2013-11-20 03:00:00,
2013-11-19 22:05:00,28.6,23.2,30.06,NE,42,8.1,11.6,80,0.00,,,0.00,VWS V13.01,2013-11-20 03:05:00,
2013-11-19 22:12:00,27.3,23.1,30.06,NE,41,0.0,6.3,84,0.00,,,0.00,VWS V13.01,2013-11-20 03:12:00,
2013-11-19 22:18:00,27.7,23.5,30.06,NE,34,5.4,10.7,84,0.00,,,0.00,VWS V13.01,2013-11-20 03:18:00,
2013-11-19 22:23:00,27.9,23.7,30.06,ENE,62,8.7,12.5,84,0.00,,,0.00,VWS V13.01,2013-11-20 03:23:00,
2013-11-19 22:30:00,27.9,23.7,30.06,NE,44,6.0,8.9,84,0.00,,,0.00,VWS V13.01,2013-11-20 03:30:00,
2013-11-19 22:36:00,27.0,22.8,30.06,NE,49,3.4,9.8,84,0.00,,,0.00,VWS V13.01,2013-11-20 03:36:00,
2013-11-19 22:42:00,27.0,22.8,30.06,NE,48,4.7,7.2,84,0.00,,,0.00,VWS V13.01,2013-11-20 03:42:00,
2013-11-19 22:47:00,26.1,21.9,30.06,NNE,19,4.7,7.2,84,0.00,,,0.00,VWS V13.01,2013-11-20 03:47:00,
2013-11-19 22:54:00,26.1,21.9,30.06,North,2,4.7,6.3,84,0.00,,,0.00,VWS V13.01,2013-11-20 03:54:00,
2013-11-19 22:59:00,26.2,22.1,30.06,NE,39,4.0,8.1,84,0.00,,,0.00,VWS V13.01,2013-11-20 03:59:00,
2013-11-19 23:05:00,25.9,21.7,30.06,ENE,57,0.0,5.4,84,0.00,,,0.00,VWS V13.01,2013-11-20 04:05:00,
2013-11-19 23:12:00,25.5,21.4,30.06,NE,46,5.4,10.7,84,0.00,,,0.00,VWS V13.01,2013-11-20 04:12:00,
2013-11-19 23:18:00,25.5,21.4,30.06,NNE,29,0.0,6.3,84,0.00,,,0.00,VWS V13.01,2013-11-20 04:18:00,
2013-11-19 23:24:00,24.8,21.8,30.06,ENE,58,0.0,7.2,88,0.00,,,0.00,VWS V13.01,2013-11-20 04:24:00,
2013-11-19 23:29:00,25.7,21.5,30.06,NE,43,4.7,7.2,84,0.00,,,0.00,VWS V13.01,2013-11-20 04:29:00,
2013-11-19 23:36:00,25.2,21.0,30.06,NNE,21,5.4,7.2,84,0.00,,,0.00,VWS V13.01,2013-11-20 04:36:00,
2013-11-19 23:42:00,24.6,21.6,30.06,NE,54,0.0,0.0,88,0.00,,,0.00,VWS V13.01,2013-11-20 04:42:00,
2013-11-19 23:47:00,24.8,21.8,30.06,NE,54,0.0,0.0,88,0.00,,,0.00,VWS V13.01,2013-11-20 04:47:00,
2013-11-19 23:54:00,25.7,21.5,30.06,NNE,19,4.7,8.1,84,0.00,,,0.00,VWS V13.01,2013-11-20 04:54:00,